Hourly Data Report for May 07, 2021

CARIBOU POINT (AUT)
NOVA SCOTIA
Current Station Operator: ECCC - MSC

45°46'00.000" N
62°41'00.000" W
2.40 m
8200774
71415
WBK

Download Data

Hourly Data (May 2021)
Hourly Data Report for May 7, 2021
TIME
LST
Temp Definition
°C
Dew Point Definition
°C
Rel Hum Definition
%
Precip. Amount Definition
mm

Wind Dir Definition
10's deg

Wind Spd Definition
km/h
Visibility Definition
km
Stn Press Definition
kPa
Hmdx Definition


Wind Chill Definition


Weather Definition


00:00 4.5 2.5 87 0.0 30 44   100.69     LegendNANA
01:00 4.3 2.2 86 0.0 29 51   100.74     LegendNANA
02:00 4.3 2.0 85 0.0 30 42   100.80     LegendNANA
03:00 3.9 1.8 86 0.0 31 44   100.77     LegendNANA
04:00 4.0 1.8 86 0.0 31 38   100.81     LegendNANA
05:00 4.0 1.7 85 0.0 31 32   100.93     LegendNANA
06:00 4.1 1.5 83 0.0 30 35   101.05     LegendNANA
07:00 4.2 1.6 83 0.0 29 33   101.15     LegendNANA
08:00 4.5 1.7 82 0.0 32 32   101.18     LegendNANA
09:00 4.5 1.7 82 0.0 31 33   101.23     LegendNANA
10:00 4.8 2.4 84 0.0 31 32   101.28     LegendNANA
11:00 5.2 2.7 84 0.0 30 32   101.35     LegendNANA
12:00 6.3 3.4 82 0.0 29 28   101.40     LegendNANA
13:00 6.5 3.7 82 0.0 29 28   101.46     LegendNANA
14:00 5.7 3.3 84 0.0 30 28   101.46     LegendNANA
15:00 5.7 3.4 85 0.0 30 27   101.48     LegendNANA
16:00 5.6 3.6 87 0.0 30 26   101.51     LegendNANA
17:00 5.8 4.0 88 0.0 30 18   101.54     LegendNANA
18:00 5.8 2.9 82 0.0 34 6   101.59     LegendNANA
19:00 5.7 2.9 82 0.0 2 11   101.65     LegendNANA
20:00 5.2 2.7 84 0.0 5 14   101.68     LegendNANA
21:00 5.2 1.9 79 0.0 4 15   101.75     LegendNANA
22:00 5.0 1.7 79 0.0 6 12   101.71     LegendNANA
23:00 4.4 3.2 92 0.0 6 16   101.72     LegendNANA

Notes on Data Quality.

Legend

  • E = Estimated
  • M = Missing
  • NA = Not Available*
  • [empty] = Indicates an unobserved value
Date modified: